Location: Demre
(36.2444°N, 29.9850°E)
Time: 11:05:30
(UTC+00:00)

Cosmos 1607 - Pass Details

Date: 11 March 2026
Orbit: 920 x 982 km, 65.0° (Epoch: 11 April)

Event Time Altitude Azimuth Distance (km) Brightness Sun altitude
Rises 18:38:12 0° 325° (NW) 3,649 7.8 -31.4°
Reaches altitude 10° 18:40:48 10° 321° (NW) 2,707 7.0 -31.9°
Maximum altitude 18:46:56 54° 246° (WSW) 1,169 4.5 -33.0°
Enters shadow 18:47:07 54° 239° (WSW) 1,172 4.4 -33.1°
